Hourly Data Report for October 25, 2015

All times are specified in Local Standard Time (LST). Add 1 hour to adjust for Daylight Saving Time where and when it is observed.

MONCTON INTL A
NEW BRUNSWICK

46°06'44.000" N
64°40'43.000" W
70.70 m
8103201
71705
YQM

Download Data

Hourly Data (October 2015)
Hourly Data Report for October 25, 2015
Temp Definition
°C
Dew Point Temp Definition
°C
Rel Hum Definition
%
Wind Dir Definition
10's deg

Wind Spd Definition
km/h
Visibility Definition
km
Stn Press Definition
kPa
Hmdx Definition


Wind Chill Definition


Weather Definition


TIME
00:00 Legend Double Dagger 2.2 1.0 92 17 10 24.1 101.67     LegendNANA
01:00 Legend Double Dagger 4.7 2.9 88 16 14 24.1 101.57     LegendNANA
02:00 Legend Double Dagger 4.8 3.0 88 19 13 24.1 101.53     Mostly Cloudy
03:00 Legend Double Dagger 5.0 3.0 87 17 9 24.1 101.46     LegendNANA
04:00 Legend Double Dagger 6.2 3.0 80 17 16 24.1 101.32     LegendNANA
05:00 Legend Double Dagger 7.1 3.5 78 16 20 24.1 101.21     Cloudy
06:00 Legend Double Dagger 7.4 4.0 79 18 21 24.1 101.10     LegendNANA
07:00 Legend Double Dagger 7.8 4.4 79 18 23 24.1 101.04     LegendNANA
08:00 Legend Double Dagger 8.6 5.2 79 18 18 24.1 101.01     Cloudy
09:00 Legend Double Dagger 9.8 6.0 77 17 19 24.1 100.87     LegendNANA
10:00 Legend Double Dagger 10.8 6.4 74 18 25 24.1 100.74     LegendNANA
11:00 Legend Double Dagger 12.4 6.5 67 20 29 24.1 100.65     Mostly Cloudy
12:00 Legend Double Dagger 12.9 6.3 64 20 36 24.1 100.57     LegendNANA
13:00 Legend Double Dagger 12.7 7.0 68 20 39 24.1 100.49     LegendNANA
14:00 Legend Double Dagger 12.7 7.4 70 20 30 24.1 100.45     Cloudy
15:00 Legend Double Dagger 12.8 8.1 73 20 32 19.3 100.38     Rain Showers
16:00 Legend Double Dagger 12.8 8.5 75 21 28 24.1 100.35     Rain Showers
17:00 Legend Double Dagger 11.5 9.6 88 21 27 16.1 100.38     Rain Showers
18:00 Legend Double Dagger 11.3 9.7 90 22 16 19.3 100.35     Rain Showers
19:00 Legend Double Dagger 11.4 9.7 89 23 13 24.1 100.39     LegendNANA
20:00 Legend Double Dagger 11.6 10.2 91 24 21 24.1 100.39     Cloudy
21:00 Legend Double Dagger 11.2 10.0 92 23 18 24.1 100.40     LegendNANA
22:00 Legend Double Dagger 11.0 9.4 90 24 22 24.1 100.47     LegendNANA
23:00 Legend Double Dagger 9.9 6.8 81 29 26 24.1 100.52     Mostly Cloudy

Notes on Data Quality.

Legend

  • E = Estimated
  • M = Missing
  • NA = Not Available
  • ‡ = Partner data that is not subject to review by the National Climate Archives
Date modified: